www.pogodaiklimat.ru

ПОГОДА в Фуллертоне, CA

  • Прогноз погоды в Фуллертоне
  • Монитор погоды в Фуллертоне
  • Климат в Фуллертоне

АРХИВ ПОГОДЫ в Фуллертоне

Время (UTC), дата Ветер
(напр.,м/с)
 
Видим.   Явления Облачность Т
(С)
Тd
(С)
f
(%)
Тe
(С)
Тes
(С)
Комфортность

P
(гПа)

Po
(гПа)
Тmin
(С)
Tmax
(С)
R
(мм)
SD
(см)
20:53 24.05 З  16 км    ясно  +23.3  +8.9  40  +25  +38  комфорт  1012.7  1009.3         
21:53 24.05 З  16 км    ясно  +22.8  +8.9  41  +24  +35  комфорт  1012.3  1008.9         
22:53 24.05 нст  16 км    ясно  +22.2  +8.3  41  +23  +32  комфорт  1011.8  1008.3  +20.6  +23.9     
23:53 24.05 нст  16 км    ясно  +21.1  +8.3  44  +22  +29  комфорт  1011.6  1008.3         
00:53 25.05 нст  16 км    ясно  +20.0  +8.3  47  +22  +25  комфорт  1011.7  1008.3         
01:53 25.05 нст  16 км    ясно  +18.3  +8.3  52  +19  +19    1012.0  1008.6         
02:53 25.05 СЗ  16 км    ясно  +16.7  +8.9  60  +16  +16    1012.5  1008.9         
03:53 25.05   16 км    ясно  +16.1  +8.9  62  +16  +16    1012.7  1009.3         
04:53 25.05   16 км    ясно  +15.6  +9.4  67  +15  +15    1013.0  1009.6  +15.6  +22.2     
05:53 25.05 СЗ  16 км    ясно  +15.6  +10.0  69  +16  +16    1012.9  1009.6         
06:53 25.05   16 км    ясно  +15.0  +10.0  72  +15  +15    1012.3  1008.9         
07:53 25.05   16 км    ясно  +15.0  +10.0  72  +15  +15    1012.1  1008.6         
08:53 25.05 В  16 км    ясно  +14.4  +9.4  72  +14  +14    1011.9  1008.3         
09:53 25.05 В  16 км    ясно  +13.9  +9.4  74  +14  +14    1011.7  1008.3         
10:53 25.05 В  16 км    ясно  +12.8  +8.9  77  +12  +12    1011.4  1007.9  +12.8  +15.6     
11:49 25.05 В  16 км    5/5 210 м  +13.0  +9.0  77  +13  +13      1008.3         
11:53 25.05   16 км    8/8 210 м  +12.8  +8.9  77  +12  +12    1011.7  1008.3         
12:53 25.05   16 км    5/5 240 м  +13.9  +10.6  80  +14  +14    1012.2  1008.6         
13:12 25.05 нст  16 км    5/5 240 м  +13.9  +10.6  80  +14  +14      1008.6         
13:27 25.05   16 км    2/2 270 м  +15.0  +11.1  77  +15  +16      1008.9         
13:53 25.05   16 км    5/5 270 м  +15.0  +11.1  77  +15  +16    1012.4  1008.9         
14:00 25.05 Ю  16 км    8/8 300 м  +15.0  +11.7  81  +15  +16      1008.9         
14:50 25.05 Ю  16 км    8/8 480 м  +16.0  +11.0  72  +16  +16      1009.6         
14:53 25.05 нст  16 км    8/8 480 м  +16.1  +11.1  72  +16  +17    1012.9  1009.6         
15:16 25.05 Ю  н/о    н/о  +16.1  +10.6  70  +16  +16      1009.6         
15:53 25.05 нст  16 км    10/10 630 м  +16.7  +10.6  67  +17  +17    1012.9  1009.6         
16:53 25.05 нст  16 км    8/8 750 м  +18.9  +10.0  56  +20  +22    1012.9  1009.6  +12.8  +19.4     
17:53 25.05 Ю  16 км    8/8 750 м  +19.4  +10.6  57  +20  +22    1012.8  1009.3         
18:00 25.05 нст  16 км    8/8 930 м  +19.4  +10.0  55  +21  +24  комфорт    1009.3         
18:53 25.05 ЮЗ  16 км    8/8 1050 м  +21.1  +10.6  51  +23  +26  комфорт  1012.3  1008.9         
19:53 25.05 ЮЗ  16 км    5/5 1020 м
[верхняя] 
+21.1  +9.4  47  +22  +28  комфорт  1012.0  1008.6         
20:53 25.05 нст  16 км    2/0 7500 м
[верхняя] 
+21.1  +9.4  47  +22  +38  комфорт  1011.5  1007.9         
21:53 25.05 ЮЗ  16 км    5/2 900 м
[верхняя] 
+20.6  +8.9  47  +22  +29  комфорт  1011.0  1007.6         
22:53 25.05 нст  3
{8} 
16 км    2/0 7500 м
[верхняя] 
+19.4  +10.0  55  +20  +29    1010.9  1007.6  +18.3  +21.7     
23:53 25.05 ЮЗ  16 км    5/2 900 м
[верхняя] 
+18.9  +10.6  59  +20  +23    1011.0  1007.6         
00:53 26.05 ЮЗ  16 км    5/2 900 м
[верхняя] 
+17.2  +10.6  65  +17  +18    1011.1  1007.6         
01:53 26.05 ЮЗ  16 км    5/2 900 м
[верхняя] 
+16.1  +10.0  67  +15  +16    1011.4  1007.9         
02:53 26.05 Ю  16 км    ясно  +16.1  +10.0  67  +16  +16    1011.5  1007.9         
03:53 26.05 Ю  16 км    ясно  +15.6  +10.6  72  +15  +15    1011.5  1007.9         
04:53 26.05   16 км    5/5 1020 м  +15.6  +10.0  69  +15  +15    1011.8  1008.3  +15.0  +20.0     
05:23 26.05 Ю  16 км    10/10 690 м  +15.6  +10.0  69  +16  +16      1008.3         
05:44 26.05 Ю  16 км    8/8 690 м  +15.6  +10.0  69  +15  +15      1008.3         
05:53 26.05 ЮЗ  16 км    5/5 690 м  +15.6  +10.0  69  +15  +15    1011.7  1008.3         
06:08 26.05 ЮЗ  16 км    8/8 690 м  +15.6  +10.0  69  +15  +15      1008.3         
06:53 26.05 нст  16 км    10/10 750 м  +15.6  +10.0  69  +16  +16    1011.7  1008.3         
07:33 26.05 ЮВ  16 км    10/10 930 м  +15.6  +10.6  72  +16  +16      1007.9         
07:53 26.05 Ю  16 км    10/10 1020 м  +15.6  +10.6  72  +15  +15    1011.3  1007.9         
08:53 26.05 Ю  16 км    10/10 1080 м  +15.6  +10.6  72  +15  +15    1011.2  1007.6         

 

Местоположение метеостанции Fullerton Municipal Airport: широта 33.8719 долгота -117.9847 высота над уровнем моря 29 м.

В архиве по умолчанию представлена погода в Фуллертоне за последние 1-2 суток. Обновление информации о фактической погоде в базе происходит ежечасно! Архивные данные за месяц целиком и за предыдущие месяцы Вы можете получить, выбрав интересующий диапазон дат из раскрывающегося списка и нажав кнопку "Ввод!".

Внимание! Архив погоды МЕТАР в базе сайта хранится не более 60 дней. Нет смысла пытаться выбрать более раннюю дату.

Внимание! Время в таблицах - всемирное. Для получения местного времени необходимо прибавить поправку, которая в Фуллертоне равна -8 ч.

Ветер - указаны скорость ветра в м/с и направление, откуда дует ветер: С - северный, СВ - северо-восточный, В - восточный, ЮВ - юго-восточный, Ю - южный, ЮЗ - юго-западный, З - западный, СЗ - северо-западный.
Видимость - горизонтальная дальность видимости в метрах или километрах. При видимости от 1 до 10 км при отсутствии осадков обычно наблюдается дымка, при ухудшении видимости до 1 км и менее - туман. В сухую погоду видимость может ухудшаться дымом, пылью или мглою.
Атмосферные явления - указаны явления, наблюдавшиеся в указанный момент времени.
Облачность - указаны через наклонную черту верхняя и нижняя облачность в баллах и высота нижней границы облаков в метрах. Внимание: облачность, как и прочие метеорологические величины в США измеряются автоматическими метеостанциями. Указанные значения в баллах носят условный характер и показывают процент времени, в течение которого, в среднем, лазерный луч высотомера отражался от облаков обратно.
T - Температура воздуха - температура, измеренная на высоте 2 м над землей.
Td - Температура точки росы - температура, при понижении до которой содержащийся в воздухе водяной пар достигнет насыщения.
f - Относительная влажность воздуха - влажноcть воздуха, измеренная на высоте 2 м над землей.
Te - Эффективная температура - температура, которую ощущает одетый по сезону человек в тени. Характеристика душности погоды. При расчете учитывается влияние влажности воздуха и скорости ветра на теплоощущения человека.
Tes - Эффективная температура на солнце - температура, которую ощущает человек, с поправкой на солнечный нагрев. Характеристика знойности погоды. Зависит от высоты солнца над горизонтом, облачности и скорости ветра. Ночью, в пасмурную погоду, а также при ветре 12 м/с и более поправка равна нулю.
P - Атмосферное давление - приведенное к уровню моря атмосферное давление.
Po - Атмосферное давление - измеренное на уровне метеостанции атмосферное давление.
Tmin - Минимальная температура - минимум температуры воздуха на высоте 2 м над землей.
Tmax - Максимальная температура - максимум температуры воздуха на высоте 2 м над землей.
R - Количество осадков - Количество выпавших осадков за 3 или 6 часов, мм.
SD - Снежный покров - Высота снежного покрова, см.